When you browse on this site, cookies collect data to enhance your experience and personalize the content and advertising you see.
Visit our Privacy Policy to learn more. By continuing to use the site, you agree to this use of cookies and data.
  • en Suisse
  • Liste des pays
  • À 7 jours
  • Température de l'eau
  • Carte satellitaire
  • Carte météo
  • Widgets météo
  • user-avatar
    Se connecter

    Météo par heure à Plavni

    Ce jour, 23 Juillet, Mardi

    Heure Température Précipitation Vent Pression Humidité
    00:00 +24°C° 0.2 mm 2 m/s 760 mmHg 67%
    01:00 +24°C° 0.2 mm 3 m/s 760 mmHg 70%
    02:00 +24°C° 0 mm 3 m/s 760 mmHg 68%
    03:00 +22°C° 0.4 mm 3 m/s 760 mmHg 73%
    04:00 +22°C° 0.4 mm 3 m/s 760 mmHg 77%
    05:00 +21°C° 0.4 mm 3 m/s 760 mmHg 82%
    06:00 +22°C° 0 mm 4 m/s 760 mmHg 76%
    07:00 +25°C° 0 mm 4 m/s 760 mmHg 70%
    08:00 +26°C° 0 mm 4 m/s 760 mmHg 64%
    09:00 +27°C° 0 mm 4 m/s 760 mmHg 58%
    10:00 +29°C° 0 mm 4 m/s 760 mmHg 51%
    11:00 +30°C° 0 mm 4 m/s 759 mmHg 45%
    12:00 +30°C° 0 mm 4 m/s 759 mmHg 43%
    13:00 +32°C° 0 mm 4 m/s 759 mmHg 41%
    14:00 +32°C° 0 mm 5 m/s 758 mmHg 39%
    15:00 +29°C° 0.2 mm 5 m/s 759 mmHg 46%
    16:00 +27°C° 0.2 mm 6 m/s 759 mmHg 52%
    17:00 +24°C° 0.2 mm 7 m/s 759 mmHg 59%
    18:00 +23°C° 0.1 mm 6 m/s 759 mmHg 62%
    19:00 +22°C° 0.1 mm 5 m/s 758 mmHg 64%
    20:00 +21°C° 0.1 mm 4 m/s 758 mmHg 67%
    21:00 +21°C° 0 mm 4 m/s 759 mmHg 66%
    22:00 +21°C° 0 mm 4 m/s 759 mmHg 65%
    23:00 +21°C° 0 mm 4 m/s 759 mmHg 64%

    Demain, 24 Juillet, Mercredi

    Heure Température Précipitation Vent Pression Humidité
    00:00 +21°C° 0 mm 4 m/s 759 mmHg 66%
    01:00 +20°C° 0 mm 4 m/s 759 mmHg 67%
    02:00 +20°C° 0 mm 4 m/s 759 mmHg 69%
    03:00 +19°C° 0 mm 4 m/s 759 mmHg 72%
    04:00 +19°C° 0 mm 5 m/s 759 mmHg 75%
    05:00 +17°C° 0 mm 6 m/s 759 mmHg 78%
    06:00 +20°C° 0 mm 6 m/s 759 mmHg 70%
    07:00 +21°C° 0 mm 6 m/s 759 mmHg 62%
    08:00 +23°C° 0 mm 7 m/s 759 mmHg 54%
    09:00 +24°C° 0 mm 7 m/s 759 mmHg 50%
    10:00 +27°C° 0 mm 7 m/s 759 mmHg 45%
    11:00 +28°C° 0 mm 6 m/s 759 mmHg 41%
    12:00 +29°C° 0 mm 6 m/s 758 mmHg 40%
    13:00 +29°C° 0 mm 6 m/s 758 mmHg 39%
    14:00 +30°C° 0 mm 6 m/s 758 mmHg 37%
    15:00 +30°C° 0 mm 5 m/s 758 mmHg 38%
    16:00 +30°C° 0 mm 5 m/s 758 mmHg 39%
    17:00 +30°C° 0 mm 5 m/s 758 mmHg 40%
    18:00 +28°C° 0 mm 5 m/s 758 mmHg 45%
    19:00 +27°C° 0 mm 4 m/s 758 mmHg 50%
    20:00 +25°C° 0 mm 3 m/s 758 mmHg 55%
    21:00 +24°C° 0 mm 3 m/s 759 mmHg 57%
    22:00 +22°C° 0 mm 3 m/s 759 mmHg 60%
    23:00 +22°C° 0 mm 3 m/s 759 mmHg 63%

    Après-demain, 25 Juillet, Jeudi

    Heure Température Précipitation Vent Pression Humidité
    00:00 +21°C° 0 mm 4 m/s 759 mmHg 66%
    01:00 +21°C° 0 mm 4 m/s 759 mmHg 70%
    02:00 +20°C° 0 mm 4 m/s 759 mmHg 74%
    03:00 +20°C° 0 mm 4 m/s 759 mmHg 76%
    04:00 +20°C° 0 mm 4 m/s 760 mmHg 79%
    05:00 +19°C° 0 mm 4 m/s 760 mmHg 82%
    06:00 +21°C° 0 mm 4 m/s 760 mmHg 75%
    07:00 +22°C° 0 mm 4 m/s 760 mmHg 68%
    08:00 +25°C° 0 mm 5 m/s 760 mmHg 61%
    09:00 +27°C° 0 mm 5 m/s 760 mmHg 55%
    10:00 +28°C° 0 mm 5 m/s 760 mmHg 48%
    11:00 +30°C° 0 mm 5 m/s 760 mmHg 42%
    12:00 +30°C° 0 mm 4 m/s 760 mmHg 41%
    13:00 +32°C° 0 mm 4 m/s 760 mmHg 39%
    14:00 +32°C° 0 mm 4 m/s 759 mmHg 38%
    15:00 +32°C° 0 mm 4 m/s 759 mmHg 38%
    16:00 +32°C° 0 mm 4 m/s 759 mmHg 38%
    17:00 +32°C° 0 mm 4 m/s 759 mmHg 38%
    18:00 +29°C° 0 mm 3 m/s 759 mmHg 44%
    19:00 +28°C° 0 mm 2 m/s 759 mmHg 49%
    20:00 +26°C° 0 mm 2 m/s 759 mmHg 55%
    21:00 +25°C° 0 mm 2 m/s 759 mmHg 57%
    22:00 +25°C° 0 mm 1 m/s 759 mmHg 60%
    23:00 +24°C° 0 mm 1 m/s 759 mmHg 62%

    26 Juillet, Vendredi

    Heure Température Précipitation Vent Pression Humidité
    00:00 +24°C° 0 mm 1 m/s 759 mmHg 63%
    01:00 +23°C° 0 mm 1 m/s 759 mmHg 64%
    02:00 +23°C° 0 mm 1 m/s 758 mmHg 65%
    03:00 +21°C° 0 mm 0 m/s 758 mmHg 66%
    04:00 +20°C° 0 mm 0 m/s 758 mmHg 67%
    05:00 +20°C° 0 mm 0 m/s 758 mmHg 68%
    06:00 +24°C° 0 mm 1 m/s 758 mmHg 63%
    07:00 +26°C° 0 mm 1 m/s 758 mmHg 57%
    08:00 +27°C° 0 mm 2 m/s 757 mmHg 51%
    09:00 +29°C° 0 mm 2 m/s 757 mmHg 48%
    10:00 +30°C° 0 mm 3 m/s 757 mmHg 44%
    11:00 +33°C° 0 mm 3 m/s 757 mmHg 40%
    12:00 +33°C° 0 mm 3 m/s 756 mmHg 38%
    13:00 +34°C° 0 mm 2 m/s 756 mmHg 37%
    14:00 +34°C° 0 mm 2 m/s 755 mmHg 35%
    15:00 +32°C° 0 mm 2 m/s 755 mmHg 37%
    16:00 +32°C° 0 mm 2 m/s 755 mmHg 39%
    17:00 +31°C° 0 mm 2 m/s 755 mmHg 40%
    18:00 +30°C° 0.1 mm 3 m/s 755 mmHg 45%
    19:00 +29°C° 0.1 mm 3 m/s 755 mmHg 49%
    20:00 +27°C° 0.1 mm 3 m/s 755 mmHg 53%
    21:00 +26°C° 0.4 mm 3 m/s 754 mmHg 57%
    22:00 +25°C° 0.4 mm 2 m/s 754 mmHg 61%
    23:00 +24°C° 0.4 mm 2 m/s 754 mmHg 66%

    27 Juillet, Samedi

    Heure Température Précipitation Vent Pression Humidité
    00:00 +24°C° 0.3 mm 2 m/s 754 mmHg 67%
    01:00 +23°C° 0.3 mm 2 m/s 754 mmHg 68%
    02:00 +23°C° 0.3 mm 2 m/s 754 mmHg 69%
    03:00 +21°C° 0.4 mm 2 m/s 754 mmHg 72%
    04:00 +22°C° 0.4 mm 1 m/s 753 mmHg 74%
    05:00 +21°C° 0.4 mm 1 m/s 753 mmHg 77%
    06:00 +23°C° 0.6 mm 1 m/s 753 mmHg 73%
    07:00 +24°C° 0.6 mm 1 m/s 753 mmHg 70%
    08:00 +25°C° 0.6 mm 2 m/s 753 mmHg 67%
    09:00 +27°C° 0.1 mm 2 m/s 753 mmHg 61%
    10:00 +29°C° 0.1 mm 1 m/s 753 mmHg 55%
    11:00 +30°C° 0.1 mm 1 m/s 753 mmHg 49%
    12:00 +31°C° 0 mm 1 m/s 753 mmHg 47%
    13:00 +31°C° 0 mm 1 m/s 752 mmHg 45%
    14:00 +32°C° 0 mm 1 m/s 752 mmHg 43%
    15:00 +30°C° 1.4 mm 2 m/s 752 mmHg 53%
    16:00 +28°C° 1.4 mm 4 m/s 751 mmHg 62%
    17:00 +26°C° 1.4 mm 5 m/s 751 mmHg 71%
    18:00 +25°C° 1.6 mm 5 m/s 751 mmHg 76%
    19:00 +23°C° 1.6 mm 5 m/s 751 mmHg 80%
    20:00 +22°C° 1.6 mm 5 m/s 752 mmHg 85%
    21:00 +22°C° 0.3 mm 4 m/s 752 mmHg 84%
    22:00 +22°C° 0.3 mm 4 m/s 752 mmHg 83%
    23:00 +22°C° 0.3 mm 4 m/s 752 mmHg 83%

    28 Juillet, Dimanche

    Heure Température Précipitation Vent Pression Humidité
    00:00 +22°C° 0.6 mm 3 m/s 752 mmHg 84%
    01:00 +23°C° 0.6 mm 2 m/s 752 mmHg 85%
    02:00 +21°C° 0.6 mm 2 m/s 751 mmHg 86%
    03:00 +21°C° 0.8 mm 2 m/s 751 mmHg 87%
    04:00 +21°C° 0.8 mm 2 m/s 751 mmHg 88%
    05:00 +21°C° 0.8 mm 2 m/s 751 mmHg 89%
    06:00 +23°C° 0.2 mm 2 m/s 751 mmHg 86%
    07:00 +24°C° 0.2 mm 2 m/s 751 mmHg 83%
    08:00 +24°C° 0.2 mm 3 m/s 751 mmHg 80%
    09:00 +26°C° 0.2 mm 3 m/s 751 mmHg 74%
    10:00 +27°C° 0.2 mm 3 m/s 752 mmHg 68%
    11:00 +28°C° 0.2 mm 3 m/s 752 mmHg 62%
    12:00 +28°C° 0.3 mm 3 m/s 751 mmHg 59%
    13:00 +29°C° 0.3 mm 3 m/s 751 mmHg 55%
    14:00 +30°C° 0.3 mm 3 m/s 751 mmHg 51%
    15:00 +30°C° 0.4 mm 3 m/s 751 mmHg 52%
    16:00 +30°C° 0.4 mm 3 m/s 751 mmHg 53%
    17:00 +29°C° 0.4 mm 3 m/s 751 mmHg 54%
    18:00 +28°C° 0.1 mm 3 m/s 751 mmHg 60%
    19:00 +27°C° 0.1 mm 2 m/s 751 mmHg 66%
    20:00 +25°C° 0.1 mm 2 m/s 751 mmHg 72%
    21:00 +24°C° 0.2 mm 2 m/s 751 mmHg 76%
    22:00 +24°C° 0.2 mm 1 m/s 751 mmHg 79%
    23:00 +23°C° 0.2 mm 1 m/s 751 mmHg 83%
    Voir plus